Location: Cruquius
(52.3348°N, 4.6319°E)
Time: 20:18:58
(UTC+00:00)

ATLAS CENTAUR R/B - Pass Details

Date: 12 May 2021
Orbit: 472 x 671 km, 64.6° (Epoch: 13 June)

Event Time Altitude Azimuth Distance (km) Brightness Sun altitude
Exits shadow 23:40:03 46° 126° (SE) 665 1.4 -19.3°
Maximum altitude 23:40:03 46° 126° (SE) 665 1.4 -19.3°
Drops below altitude 10° 23:43:44 10° 52° (NE) 1,727 4.4 -19.3°
Sets 23:46:00 0° 46° (NE) 2,647 5.5 -19.3°
